Probability
0 0 0 0 0 0 0 0 0 0 0 0 0 0 0 3 6 3 6 6 6 10 6 6 6 3 10 10 6 3 6 6 10 6 6 3 6 0 6 6 0 3 3 6
0 0 0 0 0 0 0 0 0 0 0 0 0 0 0 0 3 3 3 3 6 6 3 6 10 6 6 13 10 3 6 3 10 10 6 3 0 6 3 3 0 0 0 6
0 0 0 0 0 0 0 0 0 0 0 0 0 0 0 0 0 0 0 6 3 6 6 6 10 10 10 13 16 3 13 10 10 10 10 0 0 0 0 0 0 3 3 0
0 0 0 0 0 0 0 0 0 0 0 0 0 0 0 0 0 3 3 3 6 10 3 6 10 10 10 13 13 13 13 13 13 3 6 3 0 0 0 0 0 0 0 0
0 0 0 0 0 0 0 0 0 0 0 0 0 0 0 0 0 0 0 3 3 6 6 6 10 10 10 10 13 13 13 10 13 6 6 3 3 0 0 0 0 0 0 3
0 0 0 0 0 0 0 0 0 0 0 0 0 0 0 0 0 0 0 0 3 6 3 6 6 10 10 10 13 13 10 10 10 10 3 0 0 0 0 0 0 0 3 3
0 0 0 0 0 0 0 0 0 0 0 0 0 0 0 0 0 0 0 0 3 10 6 6 6 10 10 10 10 13 10 10 10 13 6 6 0 0 0 0 3 0 3 3
0 0 0 0 0 0 0 0 0 0 0 0 0 0 0 0 0 0 0 3 6 6 6 6 6 10 10 10 10 10 13 10 10 6 6 6 0 3 3 3 3 3 3 3
0 0 0 0 0 0 0 0 0 0 0 0 0 0 0 0 0 0 0 3 3 6 6 6 6 10 10 10 10 10 10 13 6 6 6 6 3 3 3 3 3 3 6 6
0 0 0 0 0 0 0 0 0 0 0 0 0 0 0 0 0 0 3 3 3 6 3 3 3 6 6 6 6 6 6 6 6 6 6 6 6 3 3 3 3 3 3 6
0 0 0 0 0 0 0 0 0 0 0 0 0 0 0 0 0 0 3 3 6 3 3 3 3 6 6 6 6 6 6 6 6 6 6 6 10 13 6 6 6 6 3 6
0 0 0 0 0 0 0 0 0 0 0 0 0 0 0 0 0 3 3 3 3 0 0 3 3 3 6 6 6 6 6 6 6 6 10 13 16 10 10 10 6 6 6 6
0 0 0 0 0 0 0 0 0 0 0 0 0 0 0 0 0 3 0 0 0 0 0 0 0 0 3 6 6 6 6 6 6 6 10 10 6 6 10 10 10 6 6 6
0 0 0 0 0 0 0 0 0 0 0 0 0 0 0 0 0 0 0 0 0 0 0 0 0 0 0 3 6 6 6 6 6 6 10 6 6 6 6 6 13 10 10 10
0 0 0 0 0 0 0 0 0 0 0 0 0 0 0 0 0 0 0 0 0 0 0 0 0 0 0 0 0 3 6 3 3 3 3 3 3 6 6 6 10 10 10 10
0 0 0 0 0 0 0 0 0 0 0 0 0 0 0 0 0 0 0 0 0 0 0 0 0 0 0 0 0 0 3 3 3 3 3 3 3 6 6 6 6 6 10 6
0 0 0 0 0 0 0 0 0 0 0 0 0 0 0 0 0 0 0 0 0 0 0 0 0 0 0 3 3 0 0 3 3 3 3 6 6 6 6 6 6 6 10 10
0 0 0 0 0 0 0 0 0 0 0 0 0 0 0 0 0 0 0 0 0 0 0 0 0 0 0 0 0 3 3 6 6 6 6 6 6 6 6 6 6 6 6 10
0 0 0 0 0 0 0 0 0 0 0 0 0 0 0 0 0 0 0 0 0 0 0 0 0 0 0 0 0 0 0 3 3 3 6 6 6 6 6 6 6 6 6 6
0 0 0 0 0 0 0 0 0 0 0 0 0 0 0 0 0 0 0 0 0 0 0 0 0 0 0 0 0 0 0 3 3 3 3 3 3 3 3 3 3 3 10 6
0 0 0 0 0 0 0 0 0 0 0 0 0 0 0 0 0 0 0 0 0 0 0 0 0 0 0 0 0 0 0 0 3 3 3 3 3 3 3 3 3 3 3 3
0 0 0 0 0 0 0 0 0 0 0 0 0 0 0 0 0 0 0 0 0 0 0 0 0 0 0 0 0 0 0 0 0 0 0 0 0 0 0 3 3 3 3 3
0 0 0 0 0 0 0 0 0 0 0 0 0 0 0 0 0 0 0 0 0 0 0 0 0 0 0 0 0 0 0 0 0 0 0 0 0 0 0 0 3 3 3 3
0 0 0 0 0 0 0 0 0 0 0 0 0 0 0 0 0 0 0 0 0 0 0 0 0 0 0 0 0 0 0 0 0 0 0 0 0 0 0 3 3 3 3 3
0 0 0 0 0 0 0 0 0 0 0 0 0 0 0 0 0 0 0 0 0 0 0 0 0 0 0 0 0 0 0 0 0 0 0 0 0 0 0 3 3 3 3 3
0 0 0 0 0 0 0 0 0 0 0 0 0 0 0 0 0 0 0 0 0 0 0 0 0 0 0 0 0 0 0 0 0 0 0 0 0 0 0 0 0 0 3 0
Height
5831 5833 5833 5835 5836 5837 5837 5838 5838 5839 5839 5839 5840 5840 5840 5840 5840 5840 5840 5840 5840 5840 5840 5840 5840 5840 5840 5839 5839 5839 5839 5840 5840 5840 5840 5840 5841 5841 5841 5841 5841 5841 5841 5841
5829 5830 5832 5832 5833 5834 5835 5836 5836 5836 5836 5837 5837 5838 5838 5838 5838 5838 5838 5838 5838 5838 5838 5838 5838 5838 5837 5837 5837 5837 5837 5837 5837 5838 5838 5838 5838 5838 5838 5839 5839 5839 5839 5838
5826 5828 5829 5829 5830 5831 5832 5833 5834 5834 5834 5834 5835 5836 5836 5836 5836 5836 5836 5835 5836 5836 5836 5836 5835 5835 5835 5835 5834 5834 5834 5835 5835 5835 5835 5835 5836 5836 5836 5836 5836 5836 5836 5836
5822 5824 5825 5826 5827 5828 5830 5830 5831 5831 5831 5832 5833 5833 5833 5833 5833 5833 5833 5833 5833 5833 5833 5833 5833 5833 5832 5832 5832 5832 5832 5832 5832 5832 5832 5833 5833 5833 5833 5833 5833 5833 5833 5832
5819 5821 5822 5823 5825 5825 5826 5827 5828 5828 5828 5829 5829 5830 5831 5830 5830 5830 5830 5829 5829 5829 5829 5830 5829 5829 5829 5829 5829 5829 5829 5830 5830 5830 5830 5830 5830 5830 5830 5830 5830 5830 5830 5829
5815 5817 5818 5820 5821 5822 5823 5824 5824 5824 5825 5826 5826 5826 5827 5827 5826 5826 5826 5826 5825 5825 5826 5826 5826 5825 5825 5825 5825 5826 5826 5826 5826 5827 5827 5827 5827 5827 5827 5827 5827 5827 5826 5826
5811 5813 5814 5815 5816 5817 5819 5820 5821 5821 5821 5822 5822 5822 5824 5823 5822 5822 5822 5821 5821 5821 5821 5821 5821 5821 5821 5822 5822 5822 5822 5822 5823 5823 5823 5823 5823 5823 5823 5823 5823 5823 5823 5822
5807 5809 5810 5811 5812 5813 5815 5817 5818 5818 5818 5818 5818 5818 5819 5819 5818 5818 5817 5817 5817 5817 5817 5817 5817 5817 5817 5817 5817 5818 5818 5818 5818 5819 5819 5819 5819 5819 5819 5819 5819 5819 5819 5818
5803 5805 5806 5807 5808 5810 5810 5811 5813 5814 5813 5814 5814 5814 5814 5814 5814 5813 5813 5812 5812 5812 5812 5812 5812 5812 5812 5812 5812 5813 5813 5813 5814 5814 5814 5815 5815 5815 5815 5815 5815 5815 5814 5814
5799 5800 5801 5802 5804 5805 5807 5807 5808 5808 5808 5809 5809 5810 5810 5810 5809 5809 5808 5808 5807 5807 5807 5807 5807 5807 5807 5807 5807 5807 5808 5808 5809 5809 5810 5810 5810 5810 5810 5810 5810 5810 5810 5809
5794 5796 5797 5798 5799 5800 5802 5803 5803 5804 5804 5805 5805 5807 5806 5805 5804 5804 5803 5803 5802 5802 5802 5802 5801 5801 5801 5801 5801 5802 5802 5802 5803 5804 5804 5805 5805 5805 5805 5805 5805 5805 5805 5804
5789 5791 5792 5793 5794 5795 5796 5797 5798 5799 5799 5799 5800 5803 5800 5799 5799 5798 5798 5798 5797 5797 5797 5796 5796 5796 5795 5795 5795 5795 5796 5796 5797 5798 5798 5799 5799 5799 5799 5799 5799 5799 5799 5799
5784 5786 5787 5788 5791 5791 5791 5792 5793 5793 5794 5794 5795 5797 5794 5794 5794 5793 5793 5792 5792 5792 5791 5791 5790 5790 5790 5790 5789 5789 5790 5790 5791 5791 5792 5792 5793 5793 5793 5793 5793 5793 5793 5793
5779 5780 5782 5784 5784 5784 5786 5787 5787 5788 5788 5788 5789 5790 5789 5789 5789 5788 5788 5787 5787 5786 5786 5786 5785 5785 5784 5784 5784 5783 5783 5784 5784 5785 5785 5786 5786 5787 5787 5787 5787 5787 5787 5787
5773 5775 5776 5777 5778 5779 5780 5781 5781 5782 5782 5783 5784 5784 5784 5783 5783 5783 5783 5782 5782 5781 5781 5780 5780 5779 5778 5778 5778 5778 5777 5778 5778 5778 5779 5779 5780 5780 5780 5780 5780 5780 5781 5780
5768 5769 5770 5771 5772 5773 5774 5775 5776 5776 5777 5778 5778 5778 5778 5778 5778 5777 5777 5777 5776 5776 5775 5775 5774 5773 5773 5772 5772 5772 5772 5772 5771 5772 5772 5772 5773 5773 5773 5773 5773 5774 5774 5774
5762 5763 5765 5766 5766 5767 5768 5769 5769 5770 5771 5772 5772 5773 5772 5772 5772 5772 5771 5771 5771 5770 5770 5769 5768 5768 5767 5766 5766 5766 5765 5765 5765 5765 5765 5765 5765 5766 5766 5766 5766 5767 5767 5767
5756 5757 5758 5759 5760 5761 5764 5763 5763 5764 5765 5766 5766 5766 5766 5766 5766 5766 5765 5765 5765 5764 5764 5763 5763 5762 5761 5760 5760 5759 5758 5758 5758 5757 5757 5758 5758 5758 5758 5758 5759 5759 5759 5759
5750 5751 5752 5753 5753 5754 5756 5756 5757 5758 5759 5759 5759 5760 5760 5760 5760 5760 5759 5759 5759 5758 5758 5757 5757 5756 5755 5755 5754 5753 5752 5751 5751 5751 5750 5750 5750 5751 5751 5751 5751 5752 5752 5751
5743 5744 5746 5746 5747 5748 5750 5750 5750 5752 5752 5753 5753 5753 5753 5754 5754 5754 5753 5753 5752 5752 5751 5751 5750 5750 5749 5748 5747 5746 5745 5745 5744 5743 5743 5743 5743 5743 5743 5743 5743 5743 5743 5743
5737 5738 5739 5740 5740 5741 5743 5743 5744 5746 5746 5746 5746 5746 5747 5747 5747 5748 5747 5746 5746 5745 5745 5744 5743 5743 5742 5741 5740 5739 5738 5737 5737 5736 5736 5735 5735 5735 5735 5735 5735 5735 5735 5735
5730 5731 5732 5733 5734 5737 5736 5736 5737 5738 5738 5738 5738 5739 5740 5740 5740 5740 5740 5739 5739 5738 5738 5737 5736 5736 5735 5734 5733 5732 5731 5730 5729 5728 5728 5727 5727 5727 5726 5726 5727 5726 5726 5726
5723 5725 5726 5727 5729 5728 5728 5729 5730 5730 5731 5731 5731 5732 5732 5732 5732 5732 5732 5732 5731 5731 5730 5730 5729 5728 5727 5726 5725 5724 5723 5722 5721 5720 5720 5719 5718 5718 5718 5718 5718 5717 5717 5717
5717 5717 5718 5719 5720 5721 5721 5722 5722 5723 5723 5723 5723 5724 5724 5724 5725 5724 5724 5724 5723 5723 5722 5722 5721 5720 5719 5717 5716 5715 5714 5713 5712 5712 5711 5710 5710 5709 5709 5709 5709 5708 5708 5708
5710 5711 5711 5712 5713 5713 5714 5714 5715 5715 5715 5715 5715 5716 5716 5716 5716 5716 5716 5716 5715 5715 5714 5713 5712 5711 5710 5709 5707 5707 5706 5705 5704 5703 5702 5701 5701 5700 5700 5700 5699 5699 5699 5698
5703 5703 5704 5705 5705 5706 5706 5706 5707 5707 5707 5707 5707 5707 5707 5708 5708 5708 5708 5707 5707 5706 5706 5705 5703 5702 5701 5700 5699 5698 5697 5696 5695 5694 5693 5692 5692 5691 5691 5690 5690 5689 5689 5689
Wind_Speed
9 9 8 8 8 8 8 7 7 8 9 9 8 8 8 9 8 8 9 9 9 9 9 9 9 9 9 10 10 10 11 11 11 11 11 11 10 10 10 9 9 9 9 8
10 9 9 9 9 9 9 9 8 9 9 9 9 9 9 9 9 9 9 10 10 10 10 10 10 10 10 10 10 10 10 11 11 11 11 11 11 11 10 10 10 10 10 9
11 10 10 10 10 10 10 10 10 10 10 10 10 10 10 10 10 10 11 10 11 11 11 11 10 10 10 10 11 10 11 11 11 11 11 11 11 11 11 11 11 11 10 10
12 11 12 11 11 11 11 11 10 10 11 11 11 10 10 11 11 11 11 12 12 12 12 12 12 12 11 11 11 11 11 11 11 11 11 11 11 11 11 10 11 11 11 11
13 13 13 12 12 12 11 11 11 10 11 11 12 11 11 12 12 12 12 12 13 13 13 13 13 13 13 13 12 12 12 12 12 12 12 12 12 12 11 11 11 12 12 12
14 14 14 13 13 13 12 11 12 12 12 13 12 13 12 12 12 13 13 13 14 14 15 15 15 15 14 14 14 14 13 13 13 13 13 12 12 13 13 12 12 12 12 12
16 16 15 14 14 13 12 12 12 12 13 14 13 14 13 13 13 13 14 14 15 15 16 16 16 16 15 15 15 15 15 14 14 14 14 14 14 14 14 13 13 13 13 14
16 16 16 15 15 14 13 13 14 14 14 14 14 14 14 13 13 14 14 15 16 16 16 16 17 17 16 16 15 15 15 15 15 15 15 15 15 15 15 15 14 14 14 14
15 15 16 16 15 15 15 15 14 15 15 15 15 15 14 14 14 14 15 16 16 17 17 17 17 17 17 17 17 17 17 17 17 17 16 16 16 16 16 16 15 15 15 15
16 16 16 16 16 16 16 15 15 15 15 16 16 16 15 14 14 15 16 16 17 17 17 17 18 18 17 18 18 18 18 18 18 17 17 17 16 17 17 17 17 16 16 16
16 17 17 17 17 17 17 17 17 17 17 16 16 16 16 15 15 16 16 17 17 17 18 18 18 18 18 18 19 19 20 19 19 19 18 18 18 18 18 18 18 18 18 17
17 17 17 18 18 18 18 18 18 18 18 17 17 17 16 16 16 16 17 17 17 17 17 18 18 19 19 19 19 20 20 20 20 20 20 20 20 19 19 18 18 19 18 18
16 17 17 17 19 19 19 19 18 18 19 19 18 18 17 16 16 16 16 17 17 17 17 17 18 18 19 19 20 20 20 21 21 21 21 21 20 19 19 19 19 20 20 19
18 18 18 18 19 20 19 19 19 19 19 19 18 18 18 17 17 16 16 17 17 17 18 18 18 19 19 19 20 20 20 20 21 21 21 22 21 20 20 20 20 20 21 21
18 18 18 19 19 20 20 20 20 20 19 19 18 18 18 18 17 17 17 17 17 17 18 18 18 19 19 19 20 20 20 20 21 22 22 22 23 22 21 21 21 21 21 22
19 19 19 19 20 21 20 20 20 20 19 18 18 18 19 18 18 18 18 18 18 18 18 19 19 19 20 19 20 20 20 21 21 22 23 24 24 23 23 22 22 22 22 22
19 20 20 20 21 21 20 20 21 20 19 19 19 18 19 19 18 18 18 18 18 18 19 19 19 19 19 19 20 20 21 22 22 23 23 24 24 24 24 23 23 23 23 23
20 20 21 21 21 21 20 20 20 21 20 20 20 20 20 19 19 18 18 18 19 19 19 18 18 19 19 19 19 20 20 21 22 22 23 23 23 23 22 22 23 24 25 25
21 21 21 21 22 21 21 21 20 21 20 20 20 20 20 20 19 19 18 19 19 19 19 18 19 19 19 19 19 19 20 20 22 23 23 23 24 24 24 23 24 25 26 25
21 21 21 21 22 21 21 21 21 21 21 21 20 20 20 20 20 19 20 20 20 20 20 20 20 20 20 21 21 21 22 22 22 23 23 24 24 24 25 24 24 25 25 26
21 21 21 22 22 22 22 21 21 21 21 21 21 21 21 21 21 20 21 21 21 21 21 21 22 22 22 22 23 23 23 23 23 23 24 25 26 26 26 27 26 26 26 25
22 22 22 22 23 23 23 22 21 21 21 21 22 22 22 22 22 22 22 22 23 23 23 23 24 24 25 25 25 25 25 24 24 24 25 26 27 27 28 27 27 26 26 26
22 22 23 23 23 24 23 23 23 23 23 22 22 23 23 23 24 24 24 23 23 24 24 25 25 26 27 27 26 26 26 25 25 26 26 27 27 27 28 29 29 29 28 28
22 22 22 22 23 23 24 24 25 24 24 24 24 23 24 24 25 25 25 25 24 24 25 26 27 27 27 27 28 28 27 27 27 27 27 27 27 28 28 29 30 30 31 30
21 22 22 23 23 23 23 24 25 25 25 25 25 25 25 25 25 25 25 26 26 26 26 26 27 27 27 27 28 28 28 28 28 29 28 28 28 28 28 29 30 30 31 31
21 21 22 23 24 24 23 24 24 25 26 26 26 26 27 27 26 26 27 27 27 27 27 27 27 28 28 28 29 29 29 29 30 29 29 29 29 29 28 29 30 31 31 31
Wind_Direction
230 232 234 237 239 240 243 244 247 247 247 249 251 250 251 253 254 257 260 263 263 261 259 259 262 263 263 263 261 258 255 252 252 253 253 255 253 254 256 259 262 265 266 265
229 232 234 237 240 243 246 246 252 251 250 253 256 253 253 252 253 258 260 260 259 260 260 261 263 264 265 265 264 262 258 254 255 256 255 256 255 254 253 257 260 262 265 266
230 232 234 237 241 245 246 249 254 255 254 257 258 258 256 255 254 258 258 258 258 258 260 262 267 268 266 266 265 262 260 258 259 258 259 257 255 256 257 260 261 260 263 269
230 229 232 238 242 244 245 248 251 252 252 256 259 260 257 257 257 258 259 258 259 260 262 265 267 268 267 266 265 263 260 260 260 261 261 257 255 257 258 260 263 263 265 270
233 233 236 240 243 244 245 248 248 248 251 256 259 259 257 258 258 259 262 261 259 259 262 266 267 266 264 263 263 262 259 259 260 261 263 263 261 259 260 262 263 265 267 270
238 238 239 242 243 244 246 249 248 247 251 256 257 258 256 258 262 263 264 263 260 260 261 264 265 266 263 261 262 262 261 259 260 261 263 265 264 263 262 262 263 265 268 272
238 240 240 241 244 246 246 248 251 254 255 258 258 258 258 261 262 263 265 264 262 261 261 262 265 265 264 262 261 260 260 260 260 263 264 267 269 268 264 262 263 265 268 273
239 240 242 242 243 245 247 248 251 255 258 261 262 263 264 266 265 265 265 265 263 261 261 262 264 264 262 262 259 260 260 260 261 263 265 265 267 267 263 262 263 264 266 270
242 243 243 245 245 245 248 249 252 256 259 261 262 265 266 268 267 265 264 266 265 263 263 264 265 265 262 261 260 260 259 259 262 263 264 265 268 266 264 262 263 265 266 268
243 246 245 245 244 244 247 250 252 255 261 264 265 267 267 268 268 267 266 266 266 265 265 265 266 265 263 260 260 261 260 260 260 260 262 265 268 266 264 263 263 263 263 266
243 245 246 246 246 248 248 249 252 257 260 264 267 269 269 268 268 269 268 267 267 267 266 266 266 266 264 262 262 262 262 262 261 261 262 265 266 267 265 264 263 263 264 267
243 244 246 247 248 249 251 254 255 257 261 263 267 270 272 270 270 270 269 268 268 269 269 268 267 267 266 266 265 263 262 262 261 260 262 263 264 268 267 263 263 263 264 266
245 244 246 247 249 249 252 255 257 259 262 263 267 270 271 270 270 269 269 269 269 270 271 271 269 268 268 268 267 265 263 261 261 261 260 260 262 265 268 264 263 264 265 267
247 245 246 248 251 253 253 255 256 257 259 262 264 267 269 268 268 268 268 268 269 271 271 273 273 272 271 270 269 267 265 262 261 262 260 259 260 263 266 266 266 267 266 265
248 249 249 251 254 255 256 257 256 257 258 263 266 269 269 267 267 267 268 268 269 270 272 273 274 273 273 272 270 268 267 265 263 262 261 260 261 264 266 265 266 267 267 267
251 252 253 254 255 256 256 255 255 257 258 261 265 269 269 268 269 268 268 269 270 270 270 273 275 276 273 272 270 268 268 268 265 263 262 261 261 263 265 264 265 265 267 268
254 254 255 256 255 255 255 253 253 255 257 259 262 266 268 270 271 271 270 270 272 271 271 272 274 277 276 273 270 268 268 268 267 265 262 261 262 265 263 262 263 266 268 269
255 257 257 256 256 256 255 254 254 255 257 260 262 265 269 272 273 273 272 272 273 273 273 273 272 274 275 274 271 271 271 267 267 266 264 261 262 262 262 263 263 266 269 271
254 255 256 257 257 256 255 254 255 257 257 260 262 264 267 271 272 272 273 273 275 274 274 274 273 273 275 275 275 273 273 270 267 266 266 263 261 260 261 265 265 266 267 269
253 254 255 257 258 259 259 259 259 259 259 260 261 262 264 267 269 270 271 273 274 274 274 274 274 274 275 278 277 276 276 273 270 268 266 265 264 263 262 264 267 266 266 266
254 253 254 256 258 260 261 261 261 261 261 260 261 262 263 265 267 269 271 273 274 274 274 274 275 275 275 276 278 278 278 275 272 271 269 267 266 265 265 265 268 267 263 263
256 256 256 257 257 260 261 261 262 263 262 262 262 263 264 265 267 268 271 273 274 275 274 275 276 277 277 277 277 278 276 274 272 272 271 269 269 268 267 267 267 266 264 263
257 258 257 258 259 261 262 264 264 264 263 263 262 262 263 264 267 268 269 271 273 275 274 276 278 279 278 278 277 277 276 274 272 272 272 271 271 272 271 268 266 266 266 266
258 258 258 260 260 261 262 262 264 265 265 264 263 263 264 265 265 267 268 271 273 275 276 277 278 279 278 278 276 276 276 275 274 272 272 271 272 272 272 270 268 267 268 267
258 258 259 260 262 263 263 263 264 266 266 266 264 264 264 265 266 267 269 271 274 276 277 277 277 278 278 277 275 274 274 274 274 274 274 273 272 271 271 270 270 269 269 268
259 260 260 262 263 264 265 265 265 267 267 266 266 266 265 264 265 267 270 273 275 276 277 276 276 277 277 277 275 275 275 274 273 273 274 273 270 270 270 270 270 270 270 269